WTB161 EDDS-EBBR

Flight info

Callsign WTB161
Flight time 0h 51m
Altitude 22000
Route VESID4B VESID Y127 TUDGA Z738 NOKDI Z104 GESLO N852 LNO
Aircraft B38M/M-SDE1FGHILORVWXY/HB1

Departure

Time 2026-05-07 17:47
Airport Stuttgart Airport (EDDS)

Arrival

Time 2026-05-07 18:38
Airport Brussels Airport (EBBR)
Time Latitude Longitude Altitude Speed Heading
2026-05-07 17:05 48.68907 9.19518 1288 ft 0 kts 345°
2026-05-07 17:36 48.68885 9.19527 1288 ft 4 kts 344°
2026-05-07 17:36 48.68863 9.19537 1288 ft 4 kts 347°
2026-05-07 17:37 48.68840 9.19535 1288 ft 4 kts 39°
2026-05-07 17:37 48.68827 9.19504 1288 ft 3 kts 71°
2026-05-07 17:37 48.68825 9.19494 1288 ft 0 kts 71°
2026-05-07 17:40 48.68827 9.19503 1288 ft 3 kts 71°
2026-05-07 17:40 48.68846 9.19591 1288 ft 15 kts 72°
2026-05-07 17:40 48.68880 9.19769 1288 ft 19 kts 74°
2026-05-07 17:41 48.68828 9.19906 1288 ft 7 kts 138°
2026-05-07 17:41 48.68826 9.19984 1288 ft 12 kts 73°
2026-05-07 17:41 48.68858 9.20144 1288 ft 18 kts 73°
2026-05-07 17:41 48.68896 9.20336 1288 ft 20 kts 73°
2026-05-07 17:42 48.68933 9.20543 1288 ft 21 kts 75°
2026-05-07 17:42 48.68975 9.20764 1288 ft 22 kts 73°
2026-05-07 17:42 48.69019 9.20997 1288 ft 24 kts 74°
2026-05-07 17:42 48.69067 9.21243 1288 ft 25 kts 73°
2026-05-07 17:43 48.69116 9.21500 1288 ft 26 kts 73°
2026-05-07 17:43 48.69161 9.21735 1288 ft 23 kts 74°
2026-05-07 17:43 48.69207 9.21977 1288 ft 25 kts 74°
2026-05-07 17:43 48.69255 9.22230 1288 ft 26 kts 74°
2026-05-07 17:44 48.69306 9.22496 1288 ft 27 kts 73°
2026-05-07 17:44 48.69359 9.22772 1288 ft 28 kts 74°
2026-05-07 17:44 48.69412 9.23059 1288 ft 29 kts 75°
2026-05-07 17:44 48.69468 9.23352 1288 ft 30 kts 73°
2026-05-07 17:45 48.69519 9.23632 1288 ft 19 kts 89°
2026-05-07 17:45 48.69440 9.23744 1288 ft 17 kts 185°
2026-05-07 17:45 48.69346 9.23634 1288 ft 18 kts 224°
2026-05-07 17:45 48.69253 9.23497 1288 ft 19 kts 227°
2026-05-07 17:46 48.69197 9.23300 1288 ft 27 kts 254°
2026-05-07 17:46 48.69073 9.22639 1288 ft 102 kts 254°
2026-05-07 17:46 48.68822 9.21287 1294 ft 161 kts 255°
2026-05-07 17:46 48.68540 9.19561 1817 ft 163 kts 265°
2026-05-07 17:47 48.68286 9.17881 2665 ft 173 kts 255°
2026-05-07 17:47 48.67900 9.16075 3283 ft 187 kts 253°
2026-05-07 17:47 48.67492 9.14148 3817 ft 205 kts 255°
2026-05-07 17:47 48.67064 9.12007 4449 ft 216 kts 258°
2026-05-07 17:48 48.66936 9.09729 5192 ft 228 kts 276°
2026-05-07 17:48 48.67456 9.07344 5767 ft 247 kts 308°
2026-05-07 17:48 48.68854 9.05855 6756 ft 258 kts 342°
2026-05-07 17:48 48.70678 9.05348 7502 ft 274 kts 346°
2026-05-07 17:49 48.72546 9.04622 8446 ft 278 kts 342°
2026-05-07 17:49 48.74442 9.03786 9496 ft 283 kts 341°
2026-05-07 17:49 48.76341 9.02890 10390 ft 290 kts 340°
2026-05-07 17:49 48.78317 9.01924 10938 ft 309 kts 340°
2026-05-07 17:50 48.80397 9.00758 11422 ft 327 kts 337°
2026-05-07 17:50 48.82536 8.99507 12038 ft 340 kts 337°
2026-05-07 17:50 48.84782 8.98192 12907 ft 343 kts 338°
2026-05-07 17:50 48.87005 8.96889 13735 ft 348 kts 338°
2026-05-07 17:51 48.89262 8.95567 14474 ft 353 kts 338°
2026-05-07 17:51 48.91514 8.94036 15203 ft 355 kts 326°
2026-05-07 17:51 48.93407 8.91663 15944 ft 355 kts 314°
2026-05-07 17:51 48.95236 8.89095 16641 ft 360 kts 316°
2026-05-07 17:52 48.97095 8.86527 17391 ft 362 kts 316°
2026-05-07 17:52 48.98966 8.83946 18157 ft 364 kts 315°
2026-05-07 17:52 49.00851 8.81348 18784 ft 367 kts 315°
2026-05-07 17:52 49.02755 8.78720 19349 ft 371 kts 315°
2026-05-07 17:53 49.04672 8.76073 19943 ft 374 kts 315°
2026-05-07 17:53 49.05956 8.74296 20337 ft 376 kts 315°
2026-05-07 17:53 49.07902 8.71602 20925 ft 379 kts 315°
2026-05-07 17:53 49.09851 8.68903 21484 ft 382 kts 316°
2026-05-07 17:54 49.11830 8.66157 21937 ft 388 kts 316°
2026-05-07 17:54 49.13841 8.63366 22017 ft 397 kts 316°
2026-05-07 17:54 49.15922 8.60476 22011 ft 410 kts 316°
2026-05-07 17:54 49.18060 8.57504 22015 ft 421 kts 316°
2026-05-07 17:55 49.20250 8.54456 22021 ft 431 kts 316°
2026-05-07 17:55 49.22486 8.51337 22034 ft 436 kts 316°
2026-05-07 17:55 49.24728 8.48206 22044 ft 437 kts 316°
2026-05-07 17:55 49.26962 8.45079 22046 ft 437 kts 316°
2026-05-07 17:56 49.29205 8.41935 22048 ft 438 kts 316°
2026-05-07 17:56 49.31469 8.38760 22043 ft 443 kts 316°
2026-05-07 17:56 49.33740 8.35570 22049 ft 443 kts 316°
2026-05-07 17:56 49.36014 8.32371 22050 ft 444 kts 316°
2026-05-07 17:57 49.38288 8.29167 22053 ft 444 kts 316°
2026-05-07 17:57 49.40563 8.25958 22052 ft 444 kts 316°
2026-05-07 17:57 49.42836 8.22747 22048 ft 444 kts 316°
2026-05-07 17:57 49.45111 8.19530 22048 ft 444 kts 316°
2026-05-07 17:58 49.47370 8.16331 22050 ft 444 kts 316°
2026-05-07 17:58 49.49641 8.13110 22046 ft 445 kts 316°
2026-05-07 17:58 49.51914 8.09882 22050 ft 445 kts 316°
2026-05-07 17:58 49.54189 8.06644 22044 ft 445 kts 315°
2026-05-07 17:59 49.56288 8.03165 22040 ft 443 kts 306°
2026-05-07 17:59 49.58075 7.99297 22049 ft 443 kts 304°
2026-05-07 17:59 49.59879 7.95446 22042 ft 443 kts 305°
2026-05-07 17:59 49.61695 7.91608 22048 ft 444 kts 305°
2026-05-07 18:00 49.63512 7.87786 22047 ft 444 kts 305°
2026-05-07 18:00 49.65340 7.83945 22043 ft 443 kts 305°
2026-05-07 18:00 49.67161 7.80114 22044 ft 443 kts 305°
2026-05-07 18:00 49.68983 7.76276 22049 ft 443 kts 305°
2026-05-07 18:01 49.70806 7.72430 22049 ft 443 kts 305°
2026-05-07 18:01 49.72632 7.68573 22054 ft 444 kts 305°
2026-05-07 18:01 49.74455 7.64717 22046 ft 445 kts 304°
2026-05-07 18:01 49.76281 7.60848 22051 ft 445 kts 304°
2026-05-07 18:02 49.79920 7.53121 22047 ft 445 kts 304°
2026-05-07 18:02 49.81743 7.49244 22041 ft 445 kts 304°
2026-05-07 18:02 49.83561 7.45370 22050 ft 445 kts 304°
2026-05-07 18:03 49.85335 7.41510 22045 ft 444 kts 300°
2026-05-07 18:03 49.86780 7.37285 22048 ft 444 kts 299°
2026-05-07 18:03 49.88655 7.33494 22054 ft 445 kts 310°
2026-05-07 18:03 49.90614 7.29750 22046 ft 445 kts 306°
2026-05-07 18:04 49.92478 7.25943 22050 ft 446 kts 305°
2026-05-07 18:04 49.94321 7.22081 22050 ft 446 kts 304°
2026-05-07 18:04 49.96153 7.18187 22049 ft 446 kts 304°
2026-05-07 18:04 49.97973 7.14280 22059 ft 446 kts 304°
2026-05-07 18:05 49.99786 7.10371 22052 ft 447 kts 304°
2026-05-07 18:05 50.01608 7.06437 22046 ft 447 kts 304°
2026-05-07 18:05 50.03420 7.02516 22049 ft 447 kts 304°
2026-05-07 18:05 50.05233 6.98587 22049 ft 447 kts 304°
2026-05-07 18:06 50.07033 6.94680 22050 ft 447 kts 304°
2026-05-07 18:06 50.08842 6.90749 22045 ft 447 kts 304°
2026-05-07 18:06 50.10652 6.86808 22057 ft 447 kts 304°
2026-05-07 18:06 50.12456 6.82877 22056 ft 447 kts 304°
2026-05-07 18:07 50.14263 6.78931 22040 ft 447 kts 304°
2026-05-07 18:07 50.16067 6.74988 22041 ft 447 kts 304°
2026-05-07 18:07 50.17826 6.71135 22041 ft 447 kts 304°
2026-05-07 18:07 50.19356 6.67780 22041 ft 447 kts 304°
2026-05-07 18:08 50.21149 6.63842 22039 ft 447 kts 304°
2026-05-07 18:08 50.22949 6.59884 22047 ft 447 kts 304°
2026-05-07 18:08 50.24743 6.55934 22047 ft 447 kts 304°
2026-05-07 18:08 50.26538 6.51974 22056 ft 445 kts 304°
2026-05-07 18:09 50.28322 6.48035 22055 ft 441 kts 304°
2026-05-07 18:09 50.30092 6.44119 21959 ft 440 kts 304°
2026-05-07 18:09 50.31848 6.40227 21333 ft 435 kts 304°
2026-05-07 18:09 50.33585 6.36374 20653 ft 431 kts 304°
2026-05-07 18:10 50.35286 6.32595 19951 ft 420 kts 304°
2026-05-07 18:10 50.36952 6.28886 19194 ft 412 kts 304°
2026-05-07 18:10 50.38580 6.25258 18656 ft 400 kts 304°
2026-05-07 18:10 50.40155 6.21746 18198 ft 392 kts 304°
2026-05-07 18:11 50.41718 6.18251 17712 ft 390 kts 304°
2026-05-07 18:11 50.42746 6.15952 17396 ft 389 kts 304°
2026-05-07 18:11 50.44798 6.11357 16851 ft 386 kts 304°
2026-05-07 18:11 50.46331 6.07918 16430 ft 384 kts 304°
2026-05-07 18:12 50.47852 6.04502 16011 ft 382 kts 304°
2026-05-07 18:12 50.49372 6.01082 15622 ft 380 kts 303°
2026-05-07 18:12 50.50872 5.97705 15196 ft 378 kts 303°
2026-05-07 18:12 50.52375 5.94316 14787 ft 376 kts 303°
2026-05-07 18:13 50.53862 5.90960 14383 ft 374 kts 303°
2026-05-07 18:13 50.55347 5.87601 13994 ft 373 kts 303°
2026-05-07 18:13 50.56824 5.84259 13556 ft 371 kts 303°
2026-05-07 18:13 50.58293 5.80931 13129 ft 369 kts 303°
2026-05-07 18:14 50.59731 5.77667 12734 ft 357 kts 303°
2026-05-07 18:14 50.61116 5.74521 12355 ft 343 kts 303°
2026-05-07 18:14 50.62441 5.71507 12003 ft 327 kts 303°
2026-05-07 18:14 50.63704 5.68630 11663 ft 314 kts 303°
2026-05-07 18:15 50.64924 5.65849 11324 ft 302 kts 303°
2026-05-07 18:15 50.66094 5.63180 11002 ft 290 kts 303°
2026-05-07 18:15 50.67222 5.60602 10773 ft 285 kts 303°
2026-05-07 18:15 50.68375 5.57965 10649 ft 301 kts 303°
2026-05-07 18:16 50.69595 5.55172 10420 ft 314 kts 303°
2026-05-07 18:16 50.70844 5.52311 10006 ft 318 kts 304°
2026-05-07 18:16 50.72098 5.49435 9667 ft 318 kts 304°
2026-05-07 18:16 50.73350 5.46560 9343 ft 317 kts 304°
2026-05-07 18:17 50.74598 5.43690 9028 ft 316 kts 304°
2026-05-07 18:17 50.75837 5.40838 8715 ft 314 kts 303°
2026-05-07 18:17 50.77072 5.37994 8391 ft 313 kts 304°
2026-05-07 18:17 50.78305 5.35190 8104 ft 311 kts 304°
2026-05-07 18:18 50.79535 5.32385 7793 ft 310 kts 304°
2026-05-07 18:18 50.80760 5.29586 7491 ft 309 kts 304°
2026-05-07 18:18 50.81980 5.26804 7195 ft 307 kts 304°
2026-05-07 18:18 50.83192 5.24032 6888 ft 306 kts 304°
2026-05-07 18:19 50.84379 5.21320 6588 ft 294 kts 304°
2026-05-07 18:19 50.85519 5.18712 6305 ft 280 kts 304°
2026-05-07 18:19 50.86594 5.16226 6111 ft 270 kts 304°
2026-05-07 18:19 50.87652 5.13760 6084 ft 270 kts 304°
2026-05-07 18:20 50.88600 5.11188 5994 ft 271 kts 294°
2026-05-07 18:20 50.89334 5.08443 5633 ft 270 kts 292°
2026-05-07 18:20 50.90035 5.05696 5165 ft 269 kts 292°
2026-05-07 18:20 50.90729 5.02946 4703 ft 268 kts 292°
2026-05-07 18:21 50.91414 5.00226 4239 ft 267 kts 292°
2026-05-07 18:21 50.92089 4.97552 4018 ft 264 kts 292°
2026-05-07 18:21 50.92754 4.94834 3993 ft 265 kts 288°
2026-05-07 18:21 50.93191 4.92079 3991 ft 244 kts 282°
2026-05-07 18:22 50.93533 4.89522 3725 ft 238 kts 282°
2026-05-07 18:22 50.93761 4.87799 3477 ft 236 kts 282°
2026-05-07 18:22 50.94202 4.84456 2957 ft 233 kts 282°
2026-05-07 18:22 50.94532 4.81949 2569 ft 230 kts 282°
2026-05-07 18:23 50.94855 4.79478 2201 ft 226 kts 282°
2026-05-07 18:23 50.95138 4.77118 2042 ft 207 kts 276°
2026-05-07 18:23 50.95063 4.74960 2023 ft 190 kts 258°
2026-05-07 18:23 50.94675 4.72979 2012 ft 188 kts 249°
2026-05-07 18:24 50.94205 4.71044 2012 ft 188 kts 249°
2026-05-07 18:24 50.93750 4.69102 2007 ft 187 kts 250°
2026-05-07 18:24 50.93304 4.67167 2005 ft 187 kts 250°
2026-05-07 18:24 50.92862 4.65245 1842 ft 180 kts 250°
2026-05-07 18:25 50.92457 4.63482 1669 ft 159 kts 250°
2026-05-07 18:25 50.92094 4.61902 1470 ft 151 kts 250°
2026-05-07 18:25 50.91737 4.60351 1269 ft 150 kts 250°
2026-05-07 18:25 50.91379 4.58794 1062 ft 149 kts 250°
2026-05-07 18:26 50.91024 4.57251 851 ft 149 kts 250°
2026-05-07 18:26 50.90671 4.55705 640 ft 149 kts 251°
2026-05-07 18:26 50.90288 4.54065 822 ft 165 kts 250°
2026-05-07 18:26 50.89878 4.52289 1279 ft 181 kts 250°
2026-05-07 18:27 50.89400 4.50443 1908 ft 182 kts 235°
2026-05-07 18:27 50.88420 4.49283 2582 ft 181 kts 195°
2026-05-07 18:27 50.87182 4.49356 3202 ft 181 kts 157°
2026-05-07 18:27 50.86475 4.50086 3514 ft 181 kts 133°
2026-05-07 18:28 50.85768 4.52452 3905 ft 182 kts 106°
2026-05-07 18:28 50.85418 4.54383 4006 ft 183 kts 105°
2026-05-07 18:28 50.85071 4.56313 4025 ft 183 kts 105°
2026-05-07 18:28 50.84921 4.58289 3988 ft 182 kts 86°
2026-05-07 18:29 50.85067 4.60281 3998 ft 182 kts 82°
2026-05-07 18:29 50.85349 4.62232 3985 ft 182 kts 73°
2026-05-07 18:29 50.85740 4.64144 3773 ft 183 kts 72°
2026-05-07 18:29 50.86139 4.66049 3464 ft 182 kts 72°
2026-05-07 18:30 50.86536 4.67946 3169 ft 181 kts 72°
2026-05-07 18:30 50.86926 4.69807 2859 ft 181 kts 72°
2026-05-07 18:30 50.87319 4.71695 2566 ft 180 kts 72°
2026-05-07 18:30 50.87708 4.73579 2260 ft 180 kts 72°
2026-05-07 18:31 50.88092 4.75450 2032 ft 178 kts 72°
2026-05-07 18:31 50.88470 4.77302 1947 ft 177 kts 72°
2026-05-07 18:31 50.88891 4.79134 1939 ft 177 kts 59°
2026-05-07 18:31 50.89824 4.80339 1940 ft 176 kts 23°
2026-05-07 18:32 50.91037 4.80675 2001 ft 179 kts 356°
2026-05-07 18:32 50.92218 4.80111 2013 ft 178 kts 338°
2026-05-07 18:32 50.93385 4.79374 2026 ft 183 kts 340°
2026-05-07 18:32 50.94570 4.78653 2013 ft 185 kts 340°
2026-05-07 18:33 50.95791 4.77917 2006 ft 186 kts 340°
2026-05-07 18:33 50.96996 4.77171 1997 ft 186 kts 334°
2026-05-07 18:33 50.97856 4.75747 1934 ft 185 kts 293°
2026-05-07 18:33 50.97975 4.73730 1965 ft 187 kts 257°
2026-05-07 18:34 50.97472 4.71832 2029 ft 188 kts 244°
2026-05-07 18:34 50.96911 4.69953 2039 ft 189 kts 245°
2026-05-07 18:34 50.96542 4.68673 2015 ft 188 kts 245°
2026-05-07 18:34 50.95825 4.66174 1996 ft 188 kts 245°
2026-05-07 18:35 50.95459 4.64900 1999 ft 188 kts 245°
2026-05-07 18:35 50.94916 4.63014 1869 ft 188 kts 245°
2026-05-07 18:35 50.94201 4.60530 1566 ft 181 kts 245°
2026-05-07 18:35 50.93862 4.59349 1456 ft 166 kts 245°
2026-05-07 18:36 50.93410 4.57777 1227 ft 152 kts 245°
2026-05-07 18:36 50.92975 4.56268 1019 ft 150 kts 245°
2026-05-07 18:36 50.92546 4.54775 806 ft 149 kts 246°
2026-05-07 18:36 50.92117 4.53279 624 ft 149 kts 246°
2026-05-07 18:37 50.91687 4.51784 407 ft 149 kts 246°
2026-05-07 18:37 50.91261 4.50294 209 ft 149 kts 245°
2026-05-07 18:37 50.90846 4.48864 137 ft 131 kts 245°
2026-05-07 18:37 50.90524 4.47753 143 ft 89 kts 245°
2026-05-07 18:38 50.90324 4.47064 144 ft 48 kts 245°
2026-05-07 18:38 50.90144 4.46733 149 ft 28 kts 217°
2026-05-07 18:38 50.90062 4.46744 146 ft 11 kts 92°
2026-05-07 18:38 50.90079 4.46840 147 ft 8 kts 68°
2026-05-07 18:39 50.90103 4.46934 147 ft 11 kts 68°
2026-05-07 18:39 50.90142 4.47053 147 ft 13 kts 64°
2026-05-07 18:39 50.90181 4.47188 147 ft 15 kts 66°
2026-05-07 18:39 50.90240 4.47393 143 ft 26 kts 65°
2026-05-07 18:40 50.90324 4.47684 140 ft 31 kts 66°
2026-05-07 18:40 50.90402 4.47952 142 ft 24 kts 64°
2026-05-07 18:40 50.90473 4.48195 144 ft 25 kts 65°
2026-05-07 18:40 50.90550 4.48469 140 ft 29 kts 66°
2026-05-07 18:41 50.90635 4.48771 132 ft 31 kts 66°
2026-05-07 18:41 50.90708 4.49027 132 ft 14 kts 78°
2026-05-07 18:41 50.90675 4.49117 128 ft 9 kts 159°
2026-05-07 18:41 50.90621 4.49154 128 ft 8 kts 155°
2026-05-07 18:42 50.90568 4.49192 133 ft 9 kts 156°
2026-05-07 18:42 50.90513 4.49232 136 ft 9 kts 156°
2026-05-07 18:42 50.90446 4.49280 137 ft 12 kts 155°
2026-05-07 18:42 50.90380 4.49249 138 ft 12 kts 236°
2026-05-07 18:43 50.90341 4.49108 140 ft 16 kts 247°
2026-05-07 18:43 50.90295 4.48945 141 ft 16 kts 245°
2026-05-07 18:43 50.90253 4.48799 141 ft 14 kts 245°
2026-05-07 18:43 50.90216 4.48673 141 ft 12 kts 245°
2026-05-07 18:44 50.90184 4.48567 141 ft 10 kts 245°
2026-05-07 18:44 50.90208 4.48489 139 ft 9 kts 336°
2026-05-07 18:44 50.90239 4.48467 139 ft 0 kts 337°